TimeEST,TemperatureF,Dew PointF,Humidity,Sea Level PressureIn,VisibilityMPH,Wind Direction,Wind SpeedMPH,Gust SpeedMPH,PrecipitationIn,Events,Conditions,WindDirDegrees,DateUTC
12:25 AM,19.4,15.8,86,29.87,3.0,WSW,9.2,-,0.00,Snow,Light Snow,240,2013-02-20 05:25:00
12:33 AM,19.4,15.8,86,29.87,1.5,WSW,17.3,28.8,0.00,Snow,Light Snow,250,2013-02-20 05:33:00
12:49 AM,19.4,15.8,86,29.87,1.0,SW,15.0,21.9,0.00,Snow,Light Snow,230,2013-02-20 05:49:00
12:51 AM,19.9,16.0,85,29.90,1.0,SW,15.0,21.9,0.00,Snow,Light Snow,230,2013-02-20 05:51:00
12:54 AM,19.4,15.8,86,29.87,0.8,SW,10.4,20.7,0.00,Snow,Light Snow,230,2013-02-20 05:54:00
1:00 AM,19.4,15.8,86,29.87,0.8,SW,13.8,-,0.00,Snow,Light Snow,230,2013-02-20 06:00:00
1:12 AM,19.4,15.8,86,29.87,0.5,SW,16.1,-,0.01,Fog-Snow,Snow,230,2013-02-20 06:12:00
1:51 AM,19.0,15.1,85,29.91,0.5,SW,13.8,25.3,0.03,Fog-Snow,Snow,230,2013-02-20 06:51:00
1:58 AM,19.4,15.8,86,29.88,0.8,SW,15.0,25.3,0.00,Snow,Light Snow,230,2013-02-20 06:58:00
2:28 AM,17.6,15.8,93,29.88,0.5,SW,12.7,-,0.01,Fog-Snow,Snow,230,2013-02-20 07:28:00
2:49 AM,17.6,14.0,86,29.89,0.8,SW,16.1,21.9,0.03,Snow,Light Snow,230,2013-02-20 07:49:00
2:51 AM,18.0,14.0,84,29.92,0.8,SW,15.0,21.9,0.03,Snow,Light Snow,220,2013-02-20 07:51:00
3:13 AM,17.6,14.0,86,29.89,0.5,SW,18.4,25.3,0.00,Fog-Snow,Snow,230,2013-02-20 08:13:00
3:20 AM,17.6,12.2,79,29.89,1.0,SW,18.4,25.3,0.00,Snow,Light Snow,230,2013-02-20 08:20:00
3:35 AM,17.6,12.2,79,29.89,0.8,SW,13.8,23.0,0.00,Snow,Light Snow,230,2013-02-20 08:35:00
3:51 AM,17.1,12.9,84,29.93,0.8,SW,12.7,20.7,0.01,Snow,Light Snow,230,2013-02-20 08:51:00
3:58 AM,17.6,12.2,79,29.89,1.0,SW,11.5,21.9,0.00,Snow,Light Snow,230,2013-02-20 08:58:00
4:09 AM,17.6,12.2,79,29.90,0.8,SW,13.8,-,0.00,Snow,Light Snow,230,2013-02-20 09:09:00
4:16 AM,17.6,14.0,86,29.90,0.5,SW,15.0,20.7,0.01,Fog-Snow,Snow,230,2013-02-20 09:16:00
4:27 AM,17.6,14.0,86,29.90,0.5,SW,12.7,20.7,0.01,Fog-Snow,Snow,230,2013-02-20 09:27:00
4:31 AM,17.6,14.0,86,29.90,1.0,SW,13.8,-,0.01,Snow,Light Snow,220,2013-02-20 09:31:00
4:38 AM,17.6,12.2,79,29.90,1.0,SW,12.7,19.6,0.01,Snow,Light Snow,230,2013-02-20 09:38:00
4:51 AM,18.0,14.0,84,29.94,1.0,SW,11.5,-,0.02,Snow,Light Snow,220,2013-02-20 09:51:00
5:06 AM,17.6,14.0,86,29.91,0.8,SW,17.3,24.2,0.17,Snow,Light Snow,220,2013-02-20 10:06:00
5:17 AM,17.6,14.0,86,29.92,0.5,WSW,13.8,20.7,0.17,Fog-Snow,Snow,250,2013-02-20 10:17:00
5:25 AM,17.6,15.8,93,29.92,0.5,WSW,10.4,20.7,0.17,Fog-Snow,Snow,250,2013-02-20 10:25:00
5:36 AM,17.6,14.0,86,29.92,0.8,WSW,9.2,16.1,0.18,Snow,Light Snow,250,2013-02-20 10:36:00
5:39 AM,17.6,15.8,93,29.92,0.5,WSW,10.4,19.6,0.18,Fog-Snow,Snow,250,2013-02-20 10:39:00
5:51 AM,19.0,16.0,88,29.95,0.8,WSW,10.4,23.0,0.19,Snow,Light Snow,250,2013-02-20 10:51:00
5:54 AM,19.4,15.8,86,29.92,1.0,West,19.6,28.8,0.00,Snow,Light Snow,260,2013-02-20 10:54:00
6:13 AM,19.4,14.0,80,29.93,1.5,West,21.9,34.5,0.00,Snow,Light Snow,280,2013-02-20 11:13:00
6:36 AM,19.4,12.2,74,29.93,1.5,West,20.7,36.8,0.00,Snow,Light Snow,270,2013-02-20 11:36:00
6:51 AM,19.9,10.9,68,29.97,1.5,West,19.6,35.7,0.00,Snow,Light Snow,280,2013-02-20 11:51:00
7:01 AM,19.4,12.2,74,29.94,2.0,West,19.6,29.9,0.00,Snow,Light Snow,270,2013-02-20 12:01:00
7:04 AM,19.4,14.0,80,29.94,1.0,West,17.3,29.9,0.00,Snow,Light Snow,270,2013-02-20 12:04:00
7:12 AM,19.4,15.8,86,29.94,0.8,West,21.9,33.4,0.00,Snow,Light Snow,260,2013-02-20 12:12:00
7:23 AM,19.4,10.4,68,29.94,1.2,West,19.6,33.4,0.00,Snow,Light Snow,270,2013-02-20 12:23:00
7:35 AM,19.4,10.4,68,29.95,2.0,West,20.7,34.5,0.00,,Overcast,270,2013-02-20 12:35:00
7:43 AM,19.4,10.4,68,29.95,1.2,West,19.6,28.8,0.00,Snow,Light Snow,270,2013-02-20 12:43:00
7:51 AM,19.9,12.0,71,29.99,1.8,West,16.1,29.9,0.00,Snow,Light Snow,280,2013-02-20 12:51:00
8:12 AM,19.4,14.0,80,29.96,0.8,West,18.4,29.9,0.00,Snow,Light Snow,260,2013-02-20 13:12:00
8:28 AM,19.4,14.0,80,29.96,1.0,West,16.1,27.6,0.00,Snow,Light Snow,260,2013-02-20 13:28:00
8:51 AM,19.9,14.0,78,30.01,0.5,West,18.4,33.4,0.00,Snow,Snow,270,2013-02-20 13:51:00
9:10 AM,19.4,14.0,80,29.97,1.0,West,17.3,28.8,0.00,Snow,Light Snow,270,2013-02-20 14:10:00
9:37 AM,19.4,12.2,74,29.98,0.5,West,17.3,35.7,0.00,Snow,Snow,280,2013-02-20 14:37:00
9:46 AM,19.4,12.2,74,29.98,1.0,West,18.4,27.6,0.03,Snow,Light Snow,280,2013-02-20 14:46:00
9:51 AM,19.0,12.0,74,30.03,1.0,West,20.7,29.9,0.07,Snow,Light Snow,280,2013-02-20 14:51:00
10:16 AM,19.4,8.6,63,30.00,3.0,West,17.3,28.8,0.00,,Overcast,280,2013-02-20 15:16:00
10:32 AM,19.4,8.6,63,30.01,2.0,West,23.0,29.9,0.00,,Overcast,280,2013-02-20 15:32:00
10:42 AM,19.4,8.6,63,30.01,6.0,West,19.6,31.1,0.00,Snow,Light Snow,270,2013-02-20 15:42:00
10:51 AM,19.9,8.1,60,30.06,6.0,West,19.6,29.9,0.00,Snow,Light Snow,280,2013-02-20 15:51:00
11:51 AM,19.9,8.1,60,30.07,3.0,West,16.1,27.6,0.00,,Overcast,280,2013-02-20 16:51:00
12:28 PM,19.4,10.4,68,30.04,1.8,West,16.1,28.8,0.03,Snow,Light Snow,280,2013-02-20 17:28:00
12:39 PM,19.4,10.4,68,30.04,3.0,West,18.4,28.8,0.03,Snow,Light Snow,270,2013-02-20 17:39:00
12:51 PM,19.9,10.0,65,30.08,4.0,West,18.4,27.6,0.03,,Overcast,280,2013-02-20 17:51:00
1:34 PM,19.4,10.4,68,30.06,1.2,West,20.7,27.6,0.00,Snow,Light Snow,270,2013-02-20 18:34:00
1:49 PM,19.4,8.6,63,30.06,3.0,West,17.3,27.6,0.00,Snow,Light Snow,270,2013-02-20 18:49:00
1:51 PM,19.9,8.1,60,30.10,4.0,West,20.7,27.6,0.00,Snow,Light Snow,260,2013-02-20 18:51:00
2:51 PM,19.9,10.9,68,30.12,3.0,West,17.3,26.5,0.00,Snow,Light Snow,270,2013-02-20 19:51:00
3:28 PM,19.4,12.2,74,30.09,1.8,West,18.4,26.5,0.00,Snow,Light Snow,280,2013-02-20 20:28:00
3:36 PM,21.2,10.4,63,30.09,3.0,West,15.0,25.3,0.00,Snow,Light Snow,280,2013-02-20 20:36:00
3:51 PM,21.0,10.9,65,30.13,4.0,West,18.4,27.6,0.00,Snow,Light Snow,280,2013-02-20 20:51:00
4:25 PM,19.4,12.2,74,30.11,2.5,West,17.3,25.3,0.00,Snow,Light Snow,270,2013-02-20 21:25:00
4:42 PM,21.2,12.2,68,30.11,4.0,West,16.1,24.2,0.00,Snow,Light Snow,270,2013-02-20 21:42:00
4:51 PM,21.0,10.9,65,30.16,4.0,West,15.0,28.8,0.00,Snow,Light Snow,270,2013-02-20 21:51:00
5:51 PM,21.0,12.0,68,30.18,3.0,West,19.6,25.3,0.00,Snow,Light Snow,280,2013-02-20 22:51:00
6:51 PM,21.9,12.0,66,30.19,7.0,West,17.3,26.5,0.00,Snow,Light Snow,270,2013-02-20 23:51:00
7:17 PM,21.2,12.2,68,30.15,9.0,West,16.1,25.3,0.00,Snow,Light Snow,280,2013-02-21 00:17:00
7:51 PM,21.9,12.9,68,30.18,8.0,WNW,16.1,25.3,0.00,Snow,Light Snow,290,2013-02-21 00:51:00
8:27 PM,21.2,12.2,68,30.15,9.0,WNW,11.5,19.6,0.00,Snow,Light Snow,290,2013-02-21 01:27:00
8:51 PM,21.9,10.0,60,30.19,9.0,West,15.0,21.9,0.00,Snow,Light Snow,270,2013-02-21 01:51:00
8:58 PM,21.2,10.4,63,30.15,9.0,West,11.5,21.9,0.00,Snow,Light Snow,270,2013-02-21 01:58:00
9:28 PM,21.2,12.2,68,30.15,9.0,West,11.5,20.7,0.00,Snow,Light Snow,270,2013-02-21 02:28:00
9:51 PM,21.2,10.4,63,30.15,9.0,West,13.8,19.6,N/A,Snow,Light Snow,280,2013-02-21 02:51:00
9:59 PM,21.2,12.2,68,30.15,9.0,West,10.4,-,0.00,Snow,Light Snow,280,2013-02-21 02:59:00
10:51 PM,21.9,10.9,63,30.18,9.0,West,15.0,21.9,0.00,Snow,Light Snow,280,2013-02-21 03:51:00
11:25 PM,21.2,14.0,74,30.14,6.0,West,13.8,-,0.00,Snow,Light Snow,280,2013-02-21 04:25:00
11:51 PM,21.9,12.9,68,30.18,9.0,WNW,15.0,21.9,0.00,Snow,Light Snow,300,2013-02-21 04:51:00